TimeCST,TemperatureF,Dew PointF,Humidity,Sea Level PressureIn,VisibilityMPH,Wind Direction,Wind SpeedMPH,Gust SpeedMPH,PrecipitationIn,Events,Conditions,WindDirDegrees,DateUTC
12:15 AM,35.2,28.0,75,30.08,10.0,NNE,8.1,-,N/A,,Clear,20,2012-11-26 06:15:00
12:35 AM,34.7,27.7,76,30.08,10.0,NNE,8.1,-,N/A,,Clear,20,2012-11-26 06:35:00
12:55 AM,34.0,27.5,77,30.08,10.0,NNE,6.9,-,N/A,,Clear,20,2012-11-26 06:55:00
1:15 AM,33.8,27.5,78,30.08,10.0,North,8.1,-,N/A,,Clear,10,2012-11-26 07:15:00
1:35 AM,33.6,27.5,78,30.09,10.0,North,5.8,-,N/A,,Clear,10,2012-11-26 07:35:00
1:55 AM,33.1,27.3,79,30.10,10.0,North,5.8,-,N/A,,Clear,10,2012-11-26 07:55:00
2:15 AM,32.9,27.1,79,30.12,10.0,NNE,3.5,-,N/A,,Clear,30,2012-11-26 08:15:00
2:35 AM,32.0,27.0,82,30.13,10.0,Calm,Calm,-,N/A,,Clear,0,2012-11-26 08:35:00
2:55 AM,31.8,27.0,82,30.13,10.0,Calm,Calm,-,N/A,,Clear,0,2012-11-26 08:55:00
3:15 AM,32.0,27.0,82,30.13,10.0,North,3.5,-,N/A,,Clear,360,2012-11-26 09:15:00
3:35 AM,30.9,26.2,83,30.13,10.0,Calm,Calm,-,N/A,,Clear,0,2012-11-26 09:35:00
3:55 AM,32.0,26.6,80,30.14,10.0,Calm,Calm,-,N/A,,Clear,0,2012-11-26 09:55:00
4:15 AM,31.1,25.9,81,30.14,10.0,North,3.5,-,N/A,,Clear,10,2012-11-26 10:15:00
4:35 AM,31.5,26.2,81,30.14,10.0,North,6.9,-,N/A,,Clear,10,2012-11-26 10:35:00
4:55 AM,31.6,26.4,81,30.15,10.0,North,6.9,-,N/A,,Clear,10,2012-11-26 10:55:00
5:15 AM,31.6,26.4,81,30.15,10.0,NNE,4.6,-,N/A,,Clear,20,2012-11-26 11:15:00
5:35 AM,31.5,26.2,81,30.16,10.0,North,4.6,-,N/A,,Clear,10,2012-11-26 11:35:00
5:55 AM,31.1,26.1,82,30.18,10.0,North,6.9,-,N/A,,Clear,10,2012-11-26 11:55:00
6:15 AM,31.1,25.7,80,30.18,10.0,NNE,5.8,-,N/A,,Clear,20,2012-11-26 12:15:00
6:35 AM,30.9,25.7,81,30.19,10.0,North,6.9,-,N/A,,Clear,10,2012-11-26 12:35:00
6:55 AM,30.7,25.7,82,30.20,10.0,North,5.8,-,N/A,,Clear,10,2012-11-26 12:55:00
7:15 AM,30.7,25.7,82,30.20,10.0,North,5.8,-,N/A,,Clear,10,2012-11-26 13:15:00
7:35 AM,31.1,26.2,82,30.21,10.0,North,8.1,-,N/A,,Clear,10,2012-11-26 13:35:00
7:55 AM,32.0,26.4,80,30.22,10.0,NNE,5.8,-,N/A,,Clear,20,2012-11-26 13:55:00
8:15 AM,32.2,27.0,81,30.23,10.0,NNE,6.9,-,N/A,,Clear,30,2012-11-26 14:15:00
8:35 AM,33.8,27.7,78,30.23,10.0,NNE,5.8,-,N/A,,Clear,30,2012-11-26 14:35:00
8:55 AM,34.9,28.0,76,30.24,10.0,NE,6.9,-,N/A,,Clear,40,2012-11-26 14:55:00
9:15 AM,35.8,28.0,73,30.24,10.0,NE,10.4,-,N/A,,Clear,40,2012-11-26 15:15:00
9:35 AM,36.5,27.9,71,30.25,10.0,NE,8.1,-,N/A,,Clear,50,2012-11-26 15:35:00
9:55 AM,37.4,28.2,69,30.25,10.0,NE,11.5,-,N/A,,Clear,40,2012-11-26 15:55:00
10:15 AM,38.1,28.4,68,30.25,10.0,NNE,11.5,17.3,N/A,,Clear,30,2012-11-26 16:15:00
10:35 AM,39.2,28.8,66,30.26,10.0,NNE,8.1,-,N/A,,Clear,20,2012-11-26 16:35:00
10:55 AM,39.9,28.0,63,30.26,10.0,NE,11.5,-,N/A,,Clear,40,2012-11-26 16:55:00
11:15 AM,40.8,28.2,61,30.26,10.0,NE,9.2,-,N/A,,Clear,50,2012-11-26 17:15:00
11:35 AM,41.9,27.7,57,30.25,10.0,NNE,9.2,-,N/A,,Clear,30,2012-11-26 17:35:00
11:55 AM,42.1,26.4,54,30.25,10.0,NE,10.4,-,N/A,,Clear,40,2012-11-26 17:55:00
12:15 PM,43.0,26.8,53,30.26,10.0,NNE,9.2,-,N/A,,Clear,30,2012-11-26 18:15:00
12:35 PM,41.9,24.4,50,30.26,10.0,NNE,11.5,-,N/A,,Clear,20,2012-11-26 18:35:00
12:55 PM,43.5,25.0,48,30.26,10.0,North,10.4,16.1,N/A,,Scattered Clouds,10,2012-11-26 18:55:00
1:15 PM,43.7,24.3,46,30.26,10.0,North,13.8,-,N/A,,Mostly Cloudy,350,2012-11-26 19:15:00
1:35 PM,43.0,23.5,46,30.26,10.0,North,16.1,20.7,N/A,,Overcast,360,2012-11-26 19:35:00
1:55 PM,40.8,23.4,50,30.27,10.0,North,16.1,-,N/A,,Overcast,350,2012-11-26 19:55:00
2:15 PM,39.4,24.4,55,30.28,10.0,North,13.8,-,N/A,,Overcast,350,2012-11-26 20:15:00
2:35 PM,39.2,24.6,56,30.28,10.0,North,10.4,19.6,N/A,,Overcast,350,2012-11-26 20:35:00
2:55 PM,38.3,26.2,62,30.28,10.0,NNW,15.0,20.7,N/A,,Overcast,340,2012-11-26 20:55:00
3:15 PM,36.7,27.3,69,30.29,10.0,NNW,13.8,-,N/A,,Overcast,340,2012-11-26 21:15:00
3:35 PM,35.4,27.7,73,30.30,10.0,North,12.7,-,N/A,,Overcast,350,2012-11-26 21:35:00
3:55 PM,34.2,28.0,78,30.31,10.0,NNW,15.0,-,N/A,,Overcast,340,2012-11-26 21:55:00
4:15 PM,33.3,27.1,78,30.32,10.0,NNW,16.1,-,N/A,,Overcast,330,2012-11-26 22:15:00
4:35 PM,32.5,23.9,70,30.33,10.0,NNW,16.1,-,N/A,,Overcast,340,2012-11-26 22:35:00
4:55 PM,32.0,23.9,72,30.33,10.0,North,15.0,18.4,N/A,,Overcast,350,2012-11-26 22:55:00
5:15 PM,31.6,24.8,76,30.34,10.0,NNW,16.1,19.6,N/A,,Overcast,340,2012-11-26 23:15:00
5:35 PM,30.9,24.8,78,30.34,10.0,North,10.4,-,N/A,,Overcast,350,2012-11-26 23:35:00
5:55 PM,31.1,24.6,77,30.35,10.0,NNW,6.9,-,N/A,,Mostly Cloudy,330,2012-11-26 23:55:00